McCutcheon Field, NC

1:43 PM EST on January 17, 2017 (GMT -0500)
New River Marine Corps Air Station

Weather History for KNCA - November, 2013

Change the Weather History Date:

Saturday, November 2, 2013

  Actual Average Record
Temperature  
Mean Temperature 67 °F -  
Max Temperature 72 °F 68 °F 82 °F (2004)
Min Temperature 59 °F 45 °F 36 °F (2000)
Cooling Degree Days 2    
Growing Degree Days 17 (Base 50)    
Moisture  
Dew Point 62 °F    
Average Humidity 88    
Maximum Humidity 97    
Minimum Humidity 54    
Precipitation  
Precipitation 0.50 in - - ()
Sea Level Pressure  
Sea Level Pressure 29.75 in    
Wind  
Wind Speed 9 mph (West)    
Max Wind Speed 15 mph    
Max Gust Speed 22 mph    
Visibility 9 miles    
Events Rain    
Averages and records for this station are not official NWS values.
T = Trace of Precipitation, MM = Missing Value Source: NWS Daily Summary

Daily Weather History Graph

Daily Weather History Graph

Search for Another Location

Airport or City:

Trip Planner

Search our weather history database for the weather conditions in past years. The results will help you decide how hot, cold, wet, or windy it might be!

Date:

Astronomy

Nov. 02, 2013 Rise Set
Actual Time 7:31 AM EDT 6:14 PM EDT
Civil Twilight 7:05 AM EDT 6:40 PM EDT
Nautical Twilight 6:35 AM EDT 7:10 PM EDT
Astronomical Twilight 6:05 AM EDT 7:40 PM EDT
Moon 6:28 AM EDT (11/2) 5:43 PM EDT (11/2)
Length of Visible Light 11h 35m
Length of Day
10h 43m
Waning Crescent, 1% of the Moon is Illuminated
Nov 2
Waning Crescent
Nov 3
New
Nov 10
First Quarter
Nov 17
Full
Nov 25
Last Quarter

Hourly Weather History & Observations

Time (EDT) Temp. Dew Point Humidity Pressure Visibility Wind Dir Wind Speed Gust Speed Precip Events Conditions
12:16 AM 73.0 °F 69.1 °F 87% 29.75 in 10.0 mi SW 9.2 mph 18.4 mph 0.00 in   Overcast
12:29 AM 73.0 °F 69.1 °F 87% 29.74 in 10.0 mi SW 11.5 mph 21.9 mph 0.00 in Rain Light Rain
12:56 AM 72.0 °F 69.1 °F 91% 29.74 in 10.0 mi SW 5.8 mph - 0.01 in Rain Light Rain
1:29 AM 71.1 °F 69.1 °F 93% 29.71 in 5.0 mi South 5.8 mph - 0.04 in Rain Light Rain
1:44 AM 71.1 °F 69.1 °F 93% 29.71 in 3.0 mi SSW 9.2 mph - 0.08 in Rain Heavy Rain
1:56 AM 71.1 °F 69.1 °F 93% 29.72 in 5.0 mi SSW 9.2 mph - 0.10 in Rain Rain
2:21 AM 71.1 °F 69.1 °F 93% 29.71 in 5.0 mi SW 10.4 mph 19.6 mph 0.04 in Rain Light Rain
2:37 AM 71.1 °F 69.1 °F 93% 29.71 in 2.5 mi West 15.0 mph 21.9 mph 0.11 in Rain Heavy Rain
2:42 AM 70.0 °F 68.0 °F 93% 29.71 in 1.8 mi West 11.5 mph 21.9 mph 0.16 in Rain Heavy Rain
2:48 AM 69.1 °F 66.9 °F 93% 29.72 in 2.0 mi West 10.4 mph - 0.20 in Rain Heavy Rain
2:56 AM 69.1 °F 66.9 °F 93% 29.72 in 3.0 mi West 9.2 mph - 0.24 in Rain Rain
3:37 AM 68.0 °F 66.9 °F 96% 29.73 in 1.8 mi WSW 9.2 mph - 0.15 in Rain Heavy Rain
4:28 AM 66.9 °F 66.0 °F 97% 29.70 in 7.0 mi SSW 3.5 mph - 0.08 in Rain Light Rain
4:45 AM 66.9 °F 66.0 °F 97% 29.69 in 10.0 mi West 4.6 mph - 0.09 in Rain Light Rain
4:56 AM 66.9 °F 66.0 °F 97% 29.72 in 10.0 mi WSW 5.8 mph - 0.09 in Rain Light Rain
5:05 AM 66.9 °F 66.0 °F 97% 29.72 in 10.0 mi WSW 5.8 mph - 0.00 in Rain Light Rain
5:37 AM 66.9 °F 64.9 °F 93% 29.72 in 10.0 mi WSW 8.1 mph - 0.03 in Rain Light Rain
5:56 AM 66.9 °F 64.9 °F 93% 29.73 in 9.0 mi WSW 6.9 mph - 0.04 in Rain Light Rain
6:56 AM 66.0 °F 64.0 °F 93% 29.73 in 10.0 mi West 5.8 mph - 0.02 in   Clear
7:17 AM 66.0 °F 64.0 °F 93% 29.73 in 10.0 mi West 6.9 mph - N/A   Mostly Cloudy
7:35 AM 64.9 °F 63.0 °F 93% 29.73 in 10.0 mi West 8.1 mph - N/A   Scattered Clouds
7:42 AM 64.9 °F 63.0 °F 93% 29.73 in 10.0 mi West 9.2 mph - N/A   Mostly Cloudy
7:56 AM 64.9 °F 63.0 °F 93% 29.74 in 10.0 mi West 10.4 mph - N/A   Scattered Clouds
8:06 AM 64.9 °F 63.0 °F 93% 29.74 in 10.0 mi WNW 10.4 mph - N/A   Mostly Cloudy
8:14 AM 64.0 °F 62.1 °F 93% 29.74 in 10.0 mi WNW 13.8 mph - N/A   Mostly Cloudy
8:21 AM 64.0 °F 61.0 °F 90% 29.74 in 10.0 mi WNW 11.5 mph - N/A   Mostly Cloudy
8:32 AM 64.0 °F 61.0 °F 90% 29.76 in 10.0 mi WNW 10.4 mph - N/A   Overcast
8:56 AM 63.0 °F 61.0 °F 93% 29.77 in 10.0 mi West 6.9 mph - N/A   Mostly Cloudy
9:03 AM 63.0 °F 61.0 °F 93% 29.75 in 10.0 mi WNW 8.1 mph - N/A   Scattered Clouds
9:24 AM 63.0 °F 61.0 °F 93% 29.77 in 10.0 mi West 5.8 mph - N/A   Mostly Cloudy
10:04 AM 63.0 °F 60.1 °F 90% 29.77 in 10.0 mi West 8.1 mph - N/A   Scattered Clouds
10:14 AM 63.0 °F 60.1 °F 90% 29.78 in 10.0 mi WNW 8.1 mph - N/A   Partly Cloudy
10:56 AM 63.0 °F 60.1 °F 90% 29.79 in 10.0 mi West 9.2 mph - N/A   Clear
11:56 AM 64.0 °F 59.0 °F 84% 29.78 in 10.0 mi West 8.1 mph - N/A   Clear
12:56 PM 64.9 °F 57.0 °F 75% 29.77 in 10.0 mi WNW 9.2 mph - N/A   Clear
1:56 PM 68.0 °F 55.9 °F 65% 29.75 in 10.0 mi NW 11.5 mph - N/A   Clear
2:56 PM 69.1 °F 52.0 °F 54% 29.74 in 10.0 mi WNW 10.4 mph - N/A   Clear
3:56 PM 68.0 °F 51.1 °F 55% 29.75 in 10.0 mi WNW 4.6 mph - N/A   Clear
4:56 PM 66.0 °F 55.9 °F 70% 29.75 in 10.0 mi SSW 3.5 mph - N/A   Clear
5:56 PM 64.9 °F 57.0 °F 75% 29.78 in 10.0 mi SSW 4.6 mph - N/A   Clear
6:56 PM 63.0 °F 57.0 °F 81% 29.80 in 10.0 mi West 3.5 mph - N/A   Clear
7:56 PM 62.1 °F 57.9 °F 86% 29.82 in 10.0 mi SW 5.8 mph - N/A   Clear
8:56 PM 61.0 °F 57.0 °F 87% 29.85 in 10.0 mi SW 5.8 mph - N/A   Clear
10:56 PM 61.0 °F 55.9 °F 83% 29.89 in 10.0 mi WNW 9.2 mph - N/A   Overcast
11:56 PM 59.0 °F 48.0 °F 67% 29.91 in 10.0 mi WNW 9.2 mph - N/A   Clear